Location: Wanzleben
(52.0609°N, 11.4408°E)
Time: 01:22:12
(UTC+00:00)

NOSS 3-4 (A) - Pass Details

Date: 18 September 2020
Orbit: 886 x 1326 km, 63.4° (Epoch: 22 October)

Event Time Altitude Azimuth Distance (km) Brightness Sun altitude
Exits shadow 22:41:29 42° 319° (NW) 1,358 4.4 -36.2°
Maximum altitude 22:42:08 43° 335° (NNW) 1,343 4.5 -36.3°
Drops below altitude 10° 22:48:27 10° 46° (NE) 2,862 6.3 -36.4°
Sets 22:51:23 0° 53° (NE) 3,889 7.0 -36.4°
